Weather History for White Rock, BC

Change the Weather History Date:

Sunday, January 27, 2013

  Actual Average Record
Temperature  
Mean Temperature 40 °F -  
Max Temperature 43 °F - - ()
Min Temperature 38 °F - - ()
Degree Days  
Heating Degree Days 24    
Moisture  
Dew Point 39 °F    
Average Humidity 90    
Maximum Humidity 93    
Minimum Humidity 81    
Precipitation  
Precipitation 0.12 in - - ()
Sea Level Pressure  
Sea Level Pressure 30.01 in    
Wind  
Wind Speed 2 mph ()    
Max Wind Speed 7 mph    
Max Gust Speed -    
T = Trace of Precipitation, MM = Missing Value Source: Averaged Metar Reports

Daily Weather History Graph

Daily Weather History Graph

Search for Another Location

Airport:

Trip Planner

Search our weather history database for the weather conditions in past years. The results will help you decide how hot, cold, wet, or windy it might be!

Date:

Astronomy

Jan. 27, 2013 Rise Set
Actual Time 7:47 AM PST 5:00 PM PST
Civil Twilight 7:13 AM PST 5:35 PM PST
Nautical Twilight 6:34 AM PST 6:13 PM PST
Astronomical Twilight 5:57 AM PST 6:51 PM PST
Moon 6:10 PM PST (1/27) 7:35 AM PST (1/27)
Length of Visible Light 10h 22m
Length of Day
9h 13m
Full, 100% of the Moon is Illuminated
Jan 27
Full
Feb 3
Last Quarter
Feb 9
New
Feb 17
First Quarter
Feb 25
Full

Hourly Weather History & Observations

Time (PST) Temp. Windchill Dew Point Humidity Pressure Visibility Wind Dir Wind Speed Gust Speed Precip Events Conditions
12:00 AM 39.2 °F - 37.2 °F 93% 30.04 in - Calm Calm - N/A   Unknown
1:00 AM 39.2 °F - 37.2 °F 93% 30.03 in - Calm Calm - N/A   Unknown
2:00 AM 39.2 °F - 37.2 °F 93% 30.03 in - NE 1.2 mph - N/A   Unknown
3:00 AM 39.6 °F - 37.8 °F 93% 30.03 in - NNE 2.3 mph - N/A   Unknown
4:00 AM 40 °F - 38 °F 91% 30.03 in - NE 1.2 mph - -  
4:00 AM 40.1 °F - 38.3 °F 93% 30.03 in - NE 1.2 mph - N/A   Unknown
5:00 AM 40.3 °F - 38.3 °F 93% 30.02 in - East 1.2 mph - N/A   Unknown
6:00 AM 39.9 °F - 37.9 °F 93% 30.01 in - SE 1.2 mph - N/A   Unknown
7:00 AM 40.5 °F - 38.7 °F 93% 30.02 in - East 1.2 mph - N/A   Unknown
8:00 AM 39.9 °F - 37.9 °F 93% 30.02 in - NNE 1.2 mph - N/A   Unknown
9:00 AM 40.5 °F - 38.5 °F 93% 30.02 in - East 2.3 mph - N/A   Unknown
10:00 AM 42 °F - 40 °F 88% 30.03 in - SSE 1.2 mph - -  
10:00 AM 41.5 °F - 39.6 °F 93% 30.03 in - SSE 1.2 mph - N/A   Unknown
11:00 AM 43.0 °F 41.3 °F 40.5 °F 91% 30.04 in - South 3.5 mph - N/A   Unknown
12:00 PM 42.6 °F 40.9 °F 39.4 °F 88% 30.02 in - SSW 3.5 mph - 0.02 in   Unknown
1:00 PM 41.4 °F 37.6 °F 38.5 °F 89% 30.00 in - SSE 5.8 mph - 0.07 in   Unknown
2:00 PM 41.5 °F 37.1 °F 38.3 °F 88% 29.99 in - South 6.9 mph - 0.02 in   Unknown
3:00 PM 41.7 °F 38.0 °F 38.5 °F 88% 29.99 in - South 5.8 mph - N/A   Unknown
4:00 PM 42 °F - 38 °F 81% 29.99 in - SSE 6.9 mph - -  
4:00 PM 42.1 °F 37.7 °F 38.1 °F 86% 29.99 in - SSE 6.9 mph - N/A   Unknown
6:00 PM 40.6 °F - 37.8 °F 89% 29.98 in - SE 2.3 mph - N/A   Unknown
7:00 PM 40.6 °F 38.6 °F 38.1 °F 91% 29.99 in - SSE 3.5 mph - N/A   Unknown
8:00 PM 41.9 °F 39.0 °F 39.6 °F 91% 29.99 in - SSE 4.6 mph - 0.01 in   Unknown
9:00 PM 42.6 °F 40.9 °F 39.9 °F 90% 29.98 in - South 3.5 mph - 0.01 in   Unknown
10:00 PM 43 °F - 40 °F 85% 29.98 in - South 2.3 mph - -  
10:00 PM 43.0 °F - 40.1 °F 90% 29.98 in - South 2.3 mph - N/A   Unknown
11:00 PM 43.5 °F 41.9 °F 40.5 °F 89% 29.99 in - SSW 3.5 mph - N/A   Unknown